User: anonymous   Login
Location: NJAA Observatory
(40.6819°N, 74.8979°W)
Time: 06:23:53
(UTC-04:00)
Language:

Cosmos 1461 - Orbit

View from above orbital plane
View from above orbital plane
View from above satellite
View from above satellite

Ground track
Ground track

The orbit data is extracted from the following two-line orbital elements,

1 14064U 83044A   15245.94698991 +.00000982 +00000-0 +99314-4 0  9995
2 14064 065.0017 143.9291 0122492 298.9931 059.8950 14.91837430625836
Epoch (UTC): 02 September 2015 22:43:39
Eccentricity: 0.0122492
inclination: 65.0017°
perigee height: 507 km
apogee height: 677 km
right ascension of ascending node: 143.9291°
argument of perigee: 298.9931°
revolutions per day: 14.91837430
mean anomaly at epoch: 59.8950°
orbit number at epoch: 62583

The dashed part of the orbit path shows where the satellite is in the earth's shadow,  

DLR